SHIJIAN-17 (SJ-17)      
1 41838U 16065A   19265.82517738 -.00000271  00000-0  00000+0 0  9996
2 41838   0.9808  95.2781 0000954  23.6366 273.6898  1.00269103 10575
CZ-5 R/B                
1 41839U 16065B   19265.30567318  .00004737  00000-0  25810-3 0  9999
2 41839  19.5260 321.3930 6400645 290.9205  14.3520  3.50592067 34293
YZ-2 R/B                
1 41840U 16065C   19266.04712812 -.00000101  00000-0  00000+0 0  9996
2 41840   2.8455  91.4094 0497437 172.3165 188.9772  0.93473497  9859